Simultaneous Nadir Overpasses (SNOs) Predictions

Prediction of SNOs between GOES-14 and AQUA Satellite Orbit:

Table of predicted SNOs for the next 14.0 days since TLE Epoch: 10/15/2022
Index Date Time (GOES-14) GOES-14 Lat,Lon AQUA Lat,Lon Distance(km) Time Diff (sec)
1 10/16/2022 08:28:05 0.20,-104.36 -0.26,-102.09 257.48 80
2 10/16/2022 20:49:20 -0.17,-104.26 -0.78,-107.25 339.50 80
3 10/18/2022 20:39:09 -0.17,-104.25 -0.16,-104.11 15.01 80
4 10/20/2022 20:26:19 -0.17,-104.24 0.55,-100.99 369.99 80
5 10/21/2022 08:47:25 0.14,-104.37 0.50,-106.11 198.45 80
6 10/23/2022 08:31:53 0.15,-104.35 -0.13,-102.98 156.15 80
7 10/23/2022 20:53:07 -0.12,-104.20 -0.94,-108.13 446.37 80
8 10/25/2022 20:40:14 -0.13,-104.19 -0.33,-104.98 90.47 80
9 10/27/2022 20:30:02 -0.14,-104.18 0.38,-101.86 264.96 80
10 10/28/2022 08:51:08 0.11,-104.35 0.65,-106.98 297.83 80
